Home   Weather   Rybnik   Past weeks

Flag for Poland Past Weather in Rybnik, Poland — Yesterday and Last 2 Weeks

Now
39 °F

Light rain. Mostly cloudy.


Feels Like: 32 °F
Forecast: 40 / 55 °F
Wind: 10 mph from Northeast

Location: Katowice Airport

Current Time: Apr 28, 2017 at 6:33:40 am

Latest Report: Apr 28, 2017 at 6:00 am


Visibility: 4 mi

Pressure: 29.77 "Hg

Humidity: 93%

Dew Point: 37 °F

Location of RybnikLocation

Past Weather in Rybnik — Graph

°F

Rybnik Temperature Yesterday

Maximum temperature yesterday: 39 °F (at 5:30 pm)
Minimum temperature yesterday: 32 °F (at 10:00 am)
Average temperature yesterday: 35 °F

High & Low Weather Summary for the Past Weeks

 TemperatureHumidityPressure
High59 °F (Apr 25, 1:30 pm)100% (Apr 17, 1:00 am)30.39 "Hg (Apr 17, 1:00 am)
Low25 °F (Apr 21, 2:00 am)38% (Apr 24, 5:00 pm)29.68 "Hg (Apr 13, 5:30 am)
Average40 °F76%29.96 "Hg
* Reported Apr 13 5:00 am — Apr 28 5:00 am, Rybnik, Weather by CustomWeather, © 2017

Note: Actual official high and low records may vary slightly from our data, if they occured in-between our weather recording intervals... More about our weather records

Advertising

Rybnik Weather History for the Previous 24 Hours

Scroll right to see more
 ConditionsComfort  
Time TempWeatherWind HumidityBarometerVisibility
5:00 am
Fri, Apr 28
37 °FRain. Fog.8 mph100%29.80 "Hg2 mi
4:30 am37 °FRain. Fog.8 mph100%29.83 "Hg2 mi
4:00 am37 °FLight rain. Mostly cloudy.9 mph100%29.83 "Hg4 mi
3:30 am37 °FRain. Fog.7 mph100%29.86 "Hg2 mi
3:00 am37 °FLight rain. Mostly cloudy.8 mph100%29.86 "Hg4 mi
2:30 am37 °FRain. Fog.7 mph100%29.89 "Hg3 mi
2:00 am37 °FRain. Overcast.8 mph100%29.89 "Hg4 mi
1:30 am37 °FRain. Fog.7 mph100%29.89 "Hg2 mi
1:00 am37 °FRain. Fog.6 mph100%29.92 "Hg2 mi
12:30 am37 °FLight rain. Fog.7 mph100%29.92 "Hg2 mi
12:00 am37 °FLight rain. Fog.5 mph100%29.92 "Hg3 mi
11:30 pm
Thu, Apr 27
37 °FLight rain. Fog.6 mph100%29.95 "Hg3 mi
11:00 pm37 °FLight rain. Overcast.7 mph100%29.95 "Hg4 mi
10:30 pm37 °FMostly cloudy.7 mph100%29.95 "HgN/A
10:00 pm37 °FOvercast.7 mph100%29.95 "HgN/A
9:30 pm37 °FMostly cloudy.7 mph100%29.95 "HgN/A
9:00 pm37 °FMostly cloudy.6 mph100%29.95 "HgN/A
8:30 pm37 °FLight rain. Overcast.5 mph100%29.98 "HgN/A
8:00 pm37 °FLight rain. Mostly cloudy.6 mph100%29.95 "HgN/A
7:30 pm37 °FLight rain. Mostly cloudy.6 mph93%29.98 "HgN/A
7:00 pm37 °FCloudy.5 mph93%29.98 "HgN/A
6:30 pm39 °FMostly cloudy.5 mph87%29.95 "HgN/A
6:00 pm37 °FLow clouds.7 mph93%29.95 "HgN/A
5:30 pm39 °FCloudy.5 mph87%29.98 "HgN/A
5:00 pm37 °FCloudy.7 mph93%29.95 "HgN/A
4:30 pm37 °FLow clouds.5 mph93%29.95 "HgN/A
4:00 pm37 °FCloudy.6 mph93%29.95 "HgN/A
3:30 pm37 °FMore clouds than sun.7 mph93%29.95 "HgN/A
3:00 pm37 °FMore clouds than sun.8 mph93%29.95 "HgN/A
2:30 pm36 °FCloudy.8 mph93%29.95 "HgN/A
2:00 pm36 °FLight rain. More clouds than sun.7 mph93%29.95 "Hg4 mi
1:30 pm34 °FLight rain. Fog.6 mph100%29.95 "Hg3 mi
1:00 pm34 °FSnow. Fog.5 mph93%29.95 "Hg1 mi
12:30 pm34 °FHeavy snow. Mostly cloudy.5 mph93%29.95 "Hg1 mi
12:00 pm32 °FHeavy snow. Mostly cloudy.3 mph100%29.92 "Hg1 mi
11:30 am32 °FHeavy snow. Ice fog.3 mph100%29.92 "Hg1 mi
11:00 am32 °FLight snow. Ice fog.5 mph100%29.92 "Hg2 mi
10:30 am32 °FSnow. Ice fog.5 mph100%29.92 "Hg2 mi
10:00 am32 °FSnow. Ice fog.5 mph100%29.92 "Hg1 mi
9:30 am34 °FSnow. Fog.5 mph93%29.89 "Hg2 mi
9:00 am34 °FLight rain. Mostly cloudy.5 mph100%29.89 "Hg6 mi
8:30 am34 °FLight rain. Mostly cloudy.5 mph100%29.89 "Hg4 mi
8:00 am34 °FLight rain. Fog.6 mph93%29.86 "Hg3 mi
7:30 am34 °FLight rain. Fog.5 mph93%29.89 "Hg3 mi
7:00 am34 °FLight rain. Mostly cloudy.6 mph100%29.89 "Hg5 mi
6:30 am34 °FLight rain. Cloudy.3 mph100%29.86 "HgN/A
6:00 am34 °FLight rain. Mostly cloudy.2 mph100%29.86 "HgN/A
Weather by CustomWeather, © 2017

See weather overviewHow to use our weather pages